When you browse on this site, cookies collect data to enhance your experience and personalize the content and advertising you see.
Visit our Privacy Policy to learn more. By continuing to use the site, you agree to this use of cookies and data.
  • en France
  • Liste des pays
  • À 7 jours
  • Température de l'eau
  • Carte satellitaire
  • Carte météo
  • Widgets météo
  • user-avatar
    Se connecter

    Météo par heure à Asadabad

    Ce jour, 19 Avril, Vendredi

    Heure Température Précipitation Vent Pression Humidité
    00:00 +15°C° 0 mm 1 m/s 658 mmHg 54%
    01:00 +14°C° 0 mm 2 m/s 658 mmHg 50%
    02:00 +14°C° 0 mm 2 m/s 658 mmHg 46%
    03:00 +14°C° 0 mm 2 m/s 658 mmHg 43%
    04:00 +14°C° 0 mm 2 m/s 657 mmHg 40%
    05:00 +12°C° 0 mm 3 m/s 657 mmHg 37%
    06:00 +15°C° 0 mm 2 m/s 657 mmHg 34%
    07:00 +18°C° 0 mm 1 m/s 658 mmHg 31%
    08:00 +20°C° 0 mm 1 m/s 658 mmHg 28%
    09:00 +22°C° 0 mm 1 m/s 658 mmHg 28%
    10:00 +23°C° 0 mm 2 m/s 659 mmHg 28%
    11:00 +24°C° 0 mm 2 m/s 659 mmHg 28%
    12:00 +25°C° 0 mm 2 m/s 659 mmHg 28%
    13:00 +25°C° 0 mm 2 m/s 658 mmHg 28%
    14:00 +26°C° 0 mm 2 m/s 658 mmHg 28%
    15:00 +26°C° 0 mm 2 m/s 658 mmHg 29%
    16:00 +25°C° 0 mm 2 m/s 658 mmHg 29%
    17:00 +25°C° 0 mm 2 m/s 658 mmHg 30%
    18:00 +23°C° 0 mm 1 m/s 658 mmHg 37%
    19:00 +21°C° 0 mm 1 m/s 657 mmHg 44%
    20:00 +17°C° 0 mm 0 m/s 657 mmHg 51%
    21:00 +16°C° 0 mm 0 m/s 657 mmHg 51%
    22:00 +18°C° 0 mm 1 m/s 658 mmHg 51%
    23:00 +18°C° 0 mm 1 m/s 658 mmHg 50%

    Demain, 20 Avril, Samedi

    Heure Température Précipitation Vent Pression Humidité
    00:00 +18°C° 0 mm 1 m/s 657 mmHg 48%
    01:00 +18°C° 0 mm 1 m/s 657 mmHg 47%
    02:00 +16°C° 0 mm 1 m/s 657 mmHg 45%
    03:00 +16°C° 0 mm 1 m/s 657 mmHg 44%
    04:00 +16°C° 0 mm 1 m/s 656 mmHg 44%
    05:00 +16°C° 0 mm 1 m/s 656 mmHg 43%
    06:00 +18°C° 0 mm 1 m/s 656 mmHg 39%
    07:00 +20°C° 0 mm 1 m/s 657 mmHg 34%
    08:00 +20°C° 0 mm 0 m/s 657 mmHg 30%
    09:00 +23°C° 0 mm 1 m/s 657 mmHg 29%
    10:00 +24°C° 0 mm 2 m/s 657 mmHg 28%
    11:00 +25°C° 0 mm 2 m/s 657 mmHg 27%
    12:00 +26°C° 0 mm 2 m/s 657 mmHg 28%
    13:00 +26°C° 0 mm 3 m/s 657 mmHg 28%
    14:00 +27°C° 0 mm 3 m/s 657 mmHg 28%
    15:00 +26°C° 0 mm 3 m/s 657 mmHg 28%
    16:00 +26°C° 0 mm 2 m/s 657 mmHg 29%
    17:00 +26°C° 0 mm 2 m/s 657 mmHg 29%
    18:00 +24°C° 0 mm 2 m/s 656 mmHg 36%
    19:00 +22°C° 0 mm 1 m/s 656 mmHg 43%
    20:00 +18°C° 0 mm 0 m/s 656 mmHg 50%
    21:00 +19°C° 0 mm 1 m/s 657 mmHg 50%
    22:00 +19°C° 0 mm 1 m/s 657 mmHg 49%
    23:00 +19°C° 0 mm 1 m/s 657 mmHg 49%

    Après-demain, 21 Avril, Dimanche

    Heure Température Précipitation Vent Pression Humidité
    00:00 +19°C° 0 mm 1 m/s 657 mmHg 48%
    01:00 +17°C° 0 mm 2 m/s 656 mmHg 47%
    02:00 +17°C° 0 mm 2 m/s 656 mmHg 46%
    03:00 +17°C° 0 mm 2 m/s 656 mmHg 45%
    04:00 +17°C° 0 mm 2 m/s 656 mmHg 45%
    05:00 +16°C° 0 mm 2 m/s 655 mmHg 44%
    06:00 +18°C° 0 mm 2 m/s 656 mmHg 40%
    07:00 +21°C° 0 mm 1 m/s 657 mmHg 36%
    08:00 +23°C° 0 mm 1 m/s 657 mmHg 32%
    09:00 +24°C° 0 mm 1 m/s 657 mmHg 32%
    10:00 +25°C° 0 mm 1 m/s 658 mmHg 31%
    11:00 +26°C° 0 mm 2 m/s 658 mmHg 30%
    12:00 +26°C° 0 mm 2 m/s 658 mmHg 30%
    13:00 +27°C° 0 mm 2 m/s 658 mmHg 30%
    14:00 +27°C° 0 mm 3 m/s 658 mmHg 30%
    15:00 +27°C° 0 mm 2 m/s 657 mmHg 30%
    16:00 +27°C° 0 mm 2 m/s 657 mmHg 31%
    17:00 +27°C° 0 mm 2 m/s 657 mmHg 31%
    18:00 +25°C° 0 mm 1 m/s 657 mmHg 39%
    19:00 +23°C° 0 mm 1 m/s 656 mmHg 46%
    20:00 +19°C° 0 mm 0 m/s 656 mmHg 54%
    21:00 +21°C° 0 mm 1 m/s 657 mmHg 51%
    22:00 +21°C° 0 mm 1 m/s 657 mmHg 48%
    23:00 +20°C° 0 mm 2 m/s 657 mmHg 46%

    22 Avril, Lundi

    Heure Température Précipitation Vent Pression Humidité
    00:00 +19°C° 0 mm 2 m/s 657 mmHg 44%
    01:00 +19°C° 0 mm 2 m/s 657 mmHg 43%
    02:00 +19°C° 0 mm 2 m/s 657 mmHg 42%
    03:00 +18°C° 0.1 mm 2 m/s 656 mmHg 41%
    04:00 +18°C° 0.1 mm 2 m/s 656 mmHg 41%
    05:00 +18°C° 0.1 mm 2 m/s 656 mmHg 40%
    06:00 +19°C° 0 mm 2 m/s 657 mmHg 37%
    07:00 +21°C° 0 mm 2 m/s 657 mmHg 33%
    08:00 +24°C° 0 mm 2 m/s 658 mmHg 30%
    09:00 +25°C° 0 mm 2 m/s 658 mmHg 29%
    10:00 +26°C° 0 mm 2 m/s 659 mmHg 28%
    11:00 +27°C° 0 mm 2 m/s 659 mmHg 26%
    12:00 +28°C° 0 mm 2 m/s 659 mmHg 26%
    13:00 +28°C° 0 mm 2 m/s 659 mmHg 27%
    14:00 +29°C° 0 mm 3 m/s 658 mmHg 27%
    15:00 +29°C° 0 mm 2 m/s 658 mmHg 27%
    16:00 +29°C° 0 mm 2 m/s 658 mmHg 28%
    17:00 +28°C° 0 mm 2 m/s 658 mmHg 28%
    18:00 +26°C° 0.1 mm 2 m/s 658 mmHg 36%
    19:00 +24°C° 0.1 mm 1 m/s 658 mmHg 44%
    20:00 +20°C° 0.1 mm 0 m/s 658 mmHg 51%
    21:00 +22°C° 0 mm 1 m/s 658 mmHg 48%
    22:00 +21°C° 0 mm 2 m/s 659 mmHg 45%
    23:00 +21°C° 0 mm 3 m/s 659 mmHg 42%

    23 Avril, Mardi

    Heure Température Précipitation Vent Pression Humidité
    00:00 +20°C° 0 mm 3 m/s 658 mmHg 41%
    01:00 +20°C° 0 mm 3 m/s 658 mmHg 39%
    02:00 +19°C° 0 mm 3 m/s 658 mmHg 38%
    03:00 +19°C° 0 mm 3 m/s 658 mmHg 36%
    04:00 +19°C° 0 mm 3 m/s 657 mmHg 35%
    05:00 +19°C° 0 mm 3 m/s 657 mmHg 34%
    06:00 +21°C° 0 mm 3 m/s 658 mmHg 32%
    07:00 +23°C° 0 mm 2 m/s 658 mmHg 30%
    08:00 +25°C° 0 mm 2 m/s 659 mmHg 28%
    09:00 +26°C° 0 mm 2 m/s 659 mmHg 26%
    10:00 +27°C° 0 mm 1 m/s 660 mmHg 24%
    11:00 +28°C° 0 mm 1 m/s 660 mmHg 22%
    12:00 +29°C° 0 mm 2 m/s 660 mmHg 22%
    13:00 +30°C° 0 mm 2 m/s 660 mmHg 22%
    14:00 +30°C° 0 mm 3 m/s 659 mmHg 22%
    15:00 +30°C° 0 mm 3 m/s 659 mmHg 23%
    16:00 +30°C° 0 mm 2 m/s 659 mmHg 23%
    17:00 +30°C° 0 mm 2 m/s 659 mmHg 24%
    18:00 +28°C° 0.1 mm 2 m/s 659 mmHg 30%
    19:00 +26°C° 0.1 mm 1 m/s 659 mmHg 37%
    20:00 +24°C° 0.1 mm 1 m/s 659 mmHg 43%
    21:00 +23°C° 0.3 mm 2 m/s 659 mmHg 44%
    22:00 +23°C° 0.3 mm 2 m/s 659 mmHg 44%
    23:00 +21°C° 0.3 mm 3 m/s 659 mmHg 45%

    24 Avril, Mercredi

    Heure Température Précipitation Vent Pression Humidité
    00:00 +21°C° 0.5 mm 3 m/s 659 mmHg 46%
    01:00 +20°C° 0.5 mm 3 m/s 658 mmHg 47%
    02:00 +20°C° 0.5 mm 4 m/s 658 mmHg 48%
    03:00 +20°C° 0.3 mm 4 m/s 658 mmHg 47%
    04:00 +20°C° 0.3 mm 4 m/s 658 mmHg 47%
    05:00 +20°C° 0.3 mm 4 m/s 658 mmHg 47%
    06:00 +21°C° 0.1 mm 3 m/s 658 mmHg 45%
    07:00 +22°C° 0.1 mm 3 m/s 659 mmHg 42%
    08:00 +24°C° 0.1 mm 2 m/s 660 mmHg 40%
    09:00 +25°C° 0.1 mm 2 m/s 660 mmHg 38%
    10:00 +26°C° 0.1 mm 2 m/s 660 mmHg 35%
    11:00 +27°C° 0.1 mm 1 m/s 660 mmHg 33%
    12:00 +26°C° 0.1 mm 1 m/s 660 mmHg 34%
    13:00 +26°C° 0.1 mm 2 m/s 659 mmHg 35%
    14:00 +26°C° 0.1 mm 2 m/s 659 mmHg 36%
    15:00 +24°C° 1.4 mm 2 m/s 659 mmHg 45%
    16:00 +23°C° 1.4 mm 2 m/s 658 mmHg 54%
    17:00 +21°C° 1.4 mm 1 m/s 658 mmHg 62%
    18:00 +20°C° 0.1 mm 2 m/s 658 mmHg 64%
    19:00 +19°C° 0.1 mm 2 m/s 659 mmHg 65%
    20:00 +19°C° 0.1 mm 3 m/s 659 mmHg 67%
    21:00 +19°C° 0.1 mm 3 m/s 659 mmHg 66%
    22:00 +19°C° 0.1 mm 3 m/s 659 mmHg 64%
    23:00 +19°C° 0.1 mm 2 m/s 659 mmHg 63%
    Voir plus